Home   Weather   Cologne   Past weeks

Flag for Germany Past Weather in Cologne, North Rhine-Westphalia, Germany — Yesterday and Last 2 Weeks

Now
54 °F

Passing clouds.


Feels Like: 53 °F
Forecast: 39 / 49 °F
Wind: 5 mph from Southwest

Location: Koeln / Bonn

Current Time: Apr 24, 2017 at 11:23:43 pm

Latest Report: Apr 24, 2017 at 10:20 pm


Visibility: N/A

Pressure: 29.77 "Hg

Humidity: 54%

Dew Point: 37 °F

Location of CologneLocation

Past Weather in Cologne — Graph

°F

Cologne Temperature Yesterday

Maximum temperature yesterday: 52 °F (at 2:50 pm)
Minimum temperature yesterday: 34 °F (at 5:20 am)
Average temperature yesterday: 43 °F

High & Low Weather Summary for the Past Weeks

 TemperatureHumidityPressure
High61 °F (Apr 24, 3:20 pm)100% (Apr 14, 6:20 am)30.63 "Hg (Apr 14, 6:20 am)
Low25 °F (Apr 20, 6:20 am)32% (Apr 20, 3:50 pm)29.80 "Hg (Apr 24, 8:20 pm)
Average46 °F69%30.19 "Hg
* Reported Apr 9 9:20 pm — Apr 24 9:50 pm, Cologne, Weather by CustomWeather, © 2017

Note: Actual official high and low records may vary slightly from our data, if they occured in-between our weather recording intervals... More about our weather records

Advertising

Cologne Weather History for the Previous 24 Hours

Scroll right to see more
 ConditionsComfort  
Time TempWeatherWind HumidityBarometerVisibility
9:50 pm
Mon, Apr 24
54 °FClear.7 mph51%29.80 "Hg10 mi
9:20 pm55 °FClear.7 mph47%29.80 "Hg10 mi
8:50 pm55 °FPassing clouds.8 mph47%29.80 "HgN/A
8:20 pm55 °FSunny.9 mph47%29.80 "Hg10 mi
7:50 pm57 °FSunny.10 mph44%29.83 "Hg10 mi
7:20 pm57 °FSunny.12 mph41%29.83 "Hg10 mi
6:50 pm57 °FSunny.12 mph44%29.83 "Hg10 mi
6:20 pm59 °FPassing clouds.10 mph42%29.86 "HgN/A
5:50 pm59 °FSunny.13 mph42%29.86 "Hg10 mi
5:20 pm61 °FPassing clouds.12 mph39%29.86 "HgN/A
4:50 pm59 °FPassing clouds.12 mph42%29.89 "HgN/A
4:20 pm59 °FSunny.7 mph42%29.89 "Hg10 mi
3:50 pm61 °FPassing clouds.8 mph39%29.92 "HgN/A
3:20 pm61 °FPassing clouds.8 mph39%29.92 "HgN/A
2:50 pm59 °FPassing clouds.9 mph39%29.95 "HgN/A
2:20 pm59 °FPassing clouds.9 mph42%29.95 "HgN/A
1:50 pm59 °FPassing clouds.14 mph39%29.98 "HgN/A
1:20 pm55 °FSunny.8 mph41%29.98 "Hg10 mi
12:50 pm57 °FPassing clouds.12 mph41%30.01 "HgN/A
12:20 pm55 °FPassing clouds.8 mph44%30.01 "HgN/A
11:50 am55 °FPassing clouds.8 mph44%30.04 "HgN/A
11:32 am54 °FPartly sunny.9 mph44%30.04 "HgN/A
11:20 am54 °FPartly sunny.7 mph44%30.04 "HgN/A
10:50 am52 °FPassing clouds.9 mph47%30.04 "HgN/A
10:20 am50 °FPassing clouds.9 mph54%30.07 "HgN/A
9:20 am46 °FPassing clouds.5 mph62%30.09 "HgN/A
8:50 am43 °FPassing clouds.5 mph71%30.09 "HgN/A
8:20 am39 °FPassing clouds.5 mph81%30.09 "HgN/A
7:50 am37 °FSunny.1 mph81%30.09 "Hg10 mi
7:20 am34 °FSunny.2 mph93%30.09 "Hg10 mi
6:50 am30 °FFog.1 mph93%30.09 "HgN/A
6:20 am30 °FFog.2 mph93%30.12 "HgN/A
5:53 am30 °FFog.2 mph93%30.12 "HgN/A
5:50 am28 °FFog.2 mph100%30.12 "HgN/A
5:20 am32 °FClear.2 mph93%30.12 "Hg10 mi
4:50 am32 °FClear.2 mph93%30.15 "Hg10 mi
4:20 am32 °FClear.1 mph100%30.15 "Hg10 mi
3:50 am34 °FPassing clouds.5 mph93%30.15 "HgN/A
3:20 am37 °FClear.2 mph87%30.15 "Hg10 mi
2:50 am36 °FClear.No wind87%30.18 "Hg10 mi
2:20 am36 °FPassing clouds.2 mph87%30.18 "HgN/A
1:50 am39 °FPassing clouds.2 mph81%30.18 "HgN/A
1:20 am39 °FPassing clouds.1 mph81%30.21 "HgN/A
12:50 am39 °FPartly cloudy.1 mph81%30.21 "HgN/A
12:20 am41 °FPassing clouds.2 mph76%30.21 "HgN/A
11:50 pm
Sun, Apr 23
39 °FClear.1 mph81%30.21 "Hg10 mi
11:20 pm39 °FClear.1 mph81%30.24 "Hg10 mi
Weather by CustomWeather, © 2017

See weather overviewHow to use our weather pages